Overview Statistics Trail Chart Weather Telemetry Raw packets
 

This is the latest recevied weather packets stored in our database for station/object SV1JSO-13. If no packets are shown the sender has not sent any weather packets the latest 10 day(s).

<< 20 21 22 23 24 25 26 >>
Time Temp. Humidity Pressure Rain* Wind** Luminosity Snow
1788521401 31.67° C 33% 1008.1 hPa 0 mm - 718 W/m² -
1788521101 31.11° C 34% 1008.1 hPa 0 mm - 717 W/m² -
1788520801 31.11° C 33% 1008 hPa 0 mm - 722 W/m² -
1788520501 31.67° C 33% 1008.1 hPa 0 mm - 722 W/m² -
1788520201 31.67° C 34% 1008.2 hPa 0 mm - 721 W/m² -
1788519901 31.67° C 35% 1008.1 hPa 0 mm - 731 W/m² -
1788519600 31.11° C 35% 1008.3 hPa 0 mm - 733 W/m² -
1788519300 31.11° C 35% 1008.1 hPa 0 mm - 752 W/m² -
1788519001 31.11° C 37% 1008 hPa 0 mm - 167 W/m² -
1788518701 31.11° C 37% 1008.2 hPa 0 mm - 754 W/m² -
1788518401 31.11° C 36% 1008.3 hPa 0 mm - 752 W/m² -
1788518101 31.11° C 36% 1008.1 hPa 0 mm - 761 W/m² -
1788517801 31.11° C 36% 1008.2 hPa 0 mm - 764 W/m² -
1788517501 30.56° C 37% 1008.1 hPa 0 mm - 754 W/m² -
1788517201 30.56° C 37% 1008.2 hPa 0 mm - 763 W/m² -
1788516901 30.56° C 38% 1008 hPa 0 mm - 763 W/m² -
1788516601 30.56° C 38% 1008.1 hPa 0 mm - 771 W/m² -
1788516301 30.56° C 39% 1008.2 hPa 0 mm - 554 W/m² -
1788516001 31.11° C 39% 1008.3 hPa 0 mm - 496 W/m² -
1788515701 31.11° C 38% 1008.3 hPa 0 mm - 160 W/m² -
1788515401 31.11° C 37% 1008.3 hPa 0 mm - 737 W/m² -
1788515101 30.56° C 39% 1008.2 hPa 0 mm - 758 W/m² -
1788514800 30.56° C 40% 1008.2 hPa 0 mm - 749 W/m² -
1788514500 30.56° C 39% 1008.3 hPa 0 mm - 754 W/m² -
1788514200 30.56° C 39% 1008.3 hPa 0 mm - 476 W/m² -

* Rain latest hour (hover to see other rain measurements)
** Current wind speed in m/s (hover to see current wind gust speed)